[[{"header":{"parameterUnit":"m.s-1","parameterCategory":1,"la1":30.2991,"la2":30.254,"lo1":-89.0895,"lo2":-89.0444,"dy":0.0017,"dx":0.0017,"nx":28,"ny":28,"refTime":"2024-05-07T09:00:00:Z","depth":0,"parameterNumber":2,"parameterNumberName":"U-component_of_WINDS"},"data":[0,0,0,0,0,0,0,0,0,0,0,0,0,0,0,0,0,0,0,0,0,0,0,0,0,0,0,0,0,0,0,0,0,0,0,0,0,0,0,0,0,0,0,0,0,0,0,0,0,0,0,0,0,0,0,0,0,0,-1.7269,-1.7269,0,-1.7262,-1.7262,-1.7262,-1.7242,-1.7242,-1.7242,-1.7241,-1.7233,-1.7234,-1.7234,0,0,0,0,0,0,0,0,0,0,0,0,0,-1.7266,-1.7266,-1.7269,-1.7269,-1.7269,-1.7262,-1.7262,-1.7262,-1.7243,-1.7242,-1.7241,-1.7241,-1.7233,-1.7234,-1.7234,0,0,0,0,0,0,0,0,0,0,0,0,0,-1.7264,-1.7266,-1.7269,-1.7258,-1.7257,-1.7262,-1.7262,-1.7262,-1.7243,-1.7242,-1.7241,-1.7241,-1.7233,-1.7234,-1.7234,-1.7248,0,0,-1.7235,-1.7235,0,0,0,0,0,0,0,0,-1.7264,-1.7264,-1.726,-1.7259,-1.7258,-1.7253,-1.7258,-1.7257,-1.7243,-1.7248,-1.7241,-1.724,-1.724,-1.724,-1.724,-1.7248,-1.7248,-1.7235,-1.7235,-1.7235,-1.7235,0,0,0,0,0,0,0,-1.7264,-1.7264,-1.7266,-1.726,-1.7259,-1.7254,-1.7253,-1.7258,-1.7248,-1.7248,-1.7246,-1.7246,-1.724,-1.724,-1.724,-1.7248,-1.7235,-1.7235,-1.7235,-1.7235,-1.7268,-1.7268,0,0,0,0,0,0,-1.7266,-1.7265,-1.7267,-1.7266,-1.726,-1.7255,-1.7254,-1.7255,-1.7248,-1.7246,-1.7246,-1.7245,-1.724,-1.7239,-1.7239,-1.7256,-1.7235,-1.7235,-1.7235,-1.7267,-1.7268,-1.7269,0,0,0,0,0,0,-1.7266,-1.7266,-1.7267,-1.7265,-1.7265,-1.7255,-1.7257,-1.7255,-1.7255,-1.7247,-1.7245,-1.7248,-1.7239,-1.7239,-1.7246,-1.7255,-1.7235,-1.7236,-1.7266,-1.7267,-1.7268,-1.7289,0,0,0,0,0,0,-1.7266,-1.7266,-1.7272,-1.7265,-1.7265,-1.7274,-1.7258,-1.7256,-1.7256,-1.7254,-1.7248,-1.7246,-1.7239,-1.7246,-1.7247,-1.7255,-1.7236,-1.7265,-1.7267,-1.7268,-1.7287,-1.729,-1.7293,0,0,0,0,0,-1.7266,-1.7277,-1.7272,-1.7272,-1.7271,-1.7275,-1.7274,-1.7265,-1.7257,-1.7262,-1.7257,-1.7247,-1.7255,-1.7247,-1.7248,-1.7256,-1.7265,-1.7266,-1.7268,-1.7286,-1.7289,-1.7293,0,0,0,0,0,0,-1.7284,-1.7276,-1.727,-1.728,-1.7278,-1.7271,-1.7277,-1.7269,-1.727,-1.7268,-1.7256,-1.7255,-1.7264,-1.7261,-1.7253,-1.727,-1.7258,-1.726,-1.7271,-1.7275,-1.7278,-1.7278,-1.7236,0,0,0,0,0,-1.729,-1.7293,-1.7286,-1.7295,-1.7295,-1.7286,-1.7287,-1.7281,-1.7278,-1.7277,-1.7272,-1.727,-1.7273,-1.7274,-1.7275,-1.7287,-1.7286,-1.7294,-1.7297,-1.7299,-1.73,-1.7306,-1.731,-1.7274,-1.7274,-1.7274,0,0,-1.73,-1.7296,-1.7299,-1.7299,-1.7296,-1.73,-1.7286,-1.729,-1.7293,-1.7278,-1.7284,-1.7281,-1.7278,-1.7288,-1.7292,-1.7286,-1.731,-1.7301,-1.7303,-1.7303,-1.7308,-1.7312,-1.7315,-1.7275,-1.7275,-1.7274,0,0,-1.7321,-1.7319,-1.7326,-1.7325,-1.7322,-1.7317,-1.7319,-1.7313,-1.7311,-1.7317,-1.7307,-1.731,-1.7314,-1.7312,-1.7312,-1.7334,-1.7325,-1.7335,-1.735,-1.7356,-1.7359,-1.7361,-1.7369,-1.7371,-1.7337,-1.7337,-1.7337,0,-1.7334,-1.7339,-1.7331,-1.7336,-1.7337,-1.7325,-1.7332,-1.7331,-1.7329,-1.7329,-1.7323,-1.7328,-1.7325,-1.7334,-1.734,-1.7341,-1.7342,-1.7335,-1.7359,-1.7361,-1.7364,-1.737,-1.7373,-1.7338,-1.7338,-1.7338,-1.7338,0,-1.7356,-1.736,-1.7366,-1.7365,-1.7366,-1.7373,-1.7365,-1.7368,-1.7362,-1.7357,-1.7365,-1.7362,-1.7362,-1.7364,-1.7358,-1.7373,-1.7369,-1.7361,-1.7348,-1.7368,-1.7375,-1.7377,-1.734,-1.7339,-1.7339,-1.7339,0,0,-1.7386,-1.7381,-1.7383,-1.7383,-1.738,-1.7383,-1.7389,-1.739,-1.7392,-1.7392,-1.7397,-1.7402,-1.7394,-1.7394,-1.7388,-1.7394,-1.7411,-1.7385,-1.7385,-1.7389,-1.7427,-1.7432,-1.7435,-1.7406,-1.7407,-1.7407,-1.7427,0,-1.7405,-1.7415,-1.7409,-1.742,-1.7423,-1.7413,-1.7419,-1.7418,-1.7414,-1.7417,-1.7413,-1.7416,-1.7407,-1.7407,-1.7412,-1.7408,-1.7419,-1.7407,-1.741,-1.741,-1.7409,-1.7439,-1.7444,-1.7463,-1.743,-1.743,-1.743,0,-1.7428,-1.7429,-1.7441,-1.7438,-1.7439,-1.7444,-1.7445,-1.7448,-1.7447,-1.7444,-1.7445,-1.7438,-1.7444,-1.7433,-1.7442,-1.7434,-1.7435,-1.7434,-1.7434,-1.7433,-1.742,-1.7437,-1.7469,-1.7471,-1.7434,-1.7434,-1.7434,0,-1.7448,-1.7452,-1.746,-1.746,-1.7457,-1.746,-1.7459,-1.7458,-1.7459,-1.746,-1.7461,-1.7463,-1.7464,-1.7466,-1.746,-1.7452,-1.7469,-1.7457,-1.7466,-1.7466,-1.7468,-1.7468,-1.7499,-1.7472,-1.7472,-1.7472,-1.7472,0,-1.7469,-1.7476,-1.7468,-1.7473,-1.7481,-1.7474,-1.7483,-1.748,-1.748,-1.7484,-1.7475,-1.7479,-1.7472,-1.7475,-1.7471,-1.7478,-1.7479,-1.7477,-1.7475,-1.7477,-1.7477,-1.7476,-1.7474,-1.7473,-1.7473,-1.7472,-1.7472,0,-1.7491,-1.7486,-1.7494,-1.7491,-1.749,-1.7496,-1.7494,-1.7498,-1.7495,-1.75,-1.7501,-1.7496,-1.75,-1.7495,-1.7498,-1.7495,-1.7505,-1.7502,-1.7505,-1.7504,-1.7513,-1.7511,-1.7543,-1.7547,-1.7518,-1.7519,-1.7519,0,-1.7504,-1.7509,-1.7507,-1.7509,-1.7509,-1.7513,-1.7514,-1.7508,-1.751,-1.7511,-1.7515,-1.7518,-1.752,-1.7527,-1.7523,-1.7526,-1.7522,-1.7533,-1.7522,-1.7524,-1.7521,-1.752,-1.7521,-1.7535,-1.7535,-1.7536,-1.7536,0,-1.7527,-1.7525,-1.7527,-1.753,-1.7532,-1.7533,-1.7534,-1.7537,-1.753,-1.7533,-1.7537,-1.7539,-1.7543,-1.7546,-1.7548,-1.7547,-1.754,-1.754,-1.7542,-1.7542,-1.7543,-1.7542,-1.751,-1.7538,-1.7538,-1.7538,-1.7538,-1.7538,-1.7544,-1.7549,-1.7548,-1.7551,-1.7552,-1.7553,-1.7557,-1.7555,-1.7558,-1.756,-1.7557,-1.7562,-1.7562,-1.7564,-1.7564,-1.7568,-1.7563,-1.7566,-1.7567,-1.7567,-1.7568,-1.7544,-1.7568,-1.7568,-1.7568,-1.7568,-1.7568,0,-1.7566,-1.7566,-1.7569,-1.757,-1.7573,-1.7568,-1.7569,-1.7572,-1.7576,-1.7577,-1.7579,-1.7584,-1.7588,-1.7586,-1.7589,-1.7592,-1.7589,-1.7593,-1.7592,-1.7592,-1.7573,-1.757,-1.7595,-1.7595,-1.7595,-1.7595,-1.7595,-1.7595,-1.7578,-1.7585,-1.7583,-1.759,-1.759,-1.7595,-1.7596,-1.7597,-1.7597,-1.7603,-1.7606,-1.7605,-1.7605,-1.7608,-1.7611,-1.761,-1.7611,-1.7616,-1.7614,-1.7596,-1.7593,-1.759,-1.7588,-1.7616,-1.7617,-1.7633,-1.7633,-1.7633]},{"header":{"parameterUnit":"m.s-1","parameterCategory":1,"la1":30.2991,"la2":30.254,"lo1":-89.0895,"lo2":-89.0444,"dy":0.0017,"dx":0.0017,"nx":28,"ny":28,"refTime":"2024-05-07T09:00:00:Z","depth":0,"parameterNumber":3,"parameterNumberName":"V-component_of_WINDS"},"data":[0,0,0,0,0,0,0,0,0,0,0,0,0,0,0,0,0,0,0,0,0,0,0,0,0,0,0,0,0,0,0,0,0,0,0,0,0,0,0,0,0,0,0,0,0,0,0,0,0,0,0,0,0,0,0,0,0,0,5.0424,5.0425,0,5.0464,5.0465,5.0465,5.0456,5.0456,5.0455,5.0454,5.0492,5.0493,5.0495,0,0,0,0,0,0,0,0,0,0,0,0,0,5.0339,5.034,5.0424,5.0425,5.0425,5.0464,5.0465,5.0465,5.0457,5.0456,5.0455,5.0454,5.0491,5.0493,5.0495,0,0,0,0,0,0,0,0,0,0,0,0,0,5.0377,5.0341,5.0424,5.0426,5.0426,5.0464,5.0465,5.0465,5.0457,5.0456,5.0455,5.0454,5.0491,5.0493,5.0496,5.0533,0,0,5.0503,5.0504,0,0,0,0,0,0,0,0,5.0375,5.038,5.0425,5.0426,5.0426,5.0454,5.0448,5.0488,5.0457,5.0445,5.0454,5.0453,5.048,5.0483,5.0493,5.0535,5.0537,5.0504,5.0505,5.0506,5.0507,0,0,0,0,0,0,0,5.0372,5.0378,5.044,5.0426,5.0426,5.0424,5.0428,5.0456,5.0468,5.0446,5.0445,5.0451,5.048,5.0491,5.0494,5.0537,5.0503,5.0506,5.0507,5.0508,5.0615,5.0617,0,0,0,0,0,0,5.0369,5.0376,5.0439,5.0441,5.0397,5.0426,5.0431,5.0446,5.0468,5.047,5.0451,5.045,5.0487,5.0491,5.0495,5.0543,5.0506,5.0508,5.051,5.0614,5.0616,5.0617,0,0,0,0,0,0,5.0367,5.0375,5.0437,5.0409,5.0416,5.0429,5.0446,5.0448,5.0458,5.0472,5.0474,5.046,5.0486,5.0492,5.0525,5.0544,5.051,5.0512,5.0613,5.0615,5.0616,5.0638,0,0,0,0,0,0,5.0365,5.0374,5.0389,5.0409,5.0418,5.0466,5.0447,5.0449,5.0463,5.0462,5.0481,5.0483,5.0486,5.0521,5.0527,5.0547,5.0514,5.0611,5.0613,5.0616,5.0635,5.064,5.0645,0,0,0,0,0,5.0362,5.0392,5.039,5.0397,5.0437,5.0468,5.0473,5.0476,5.0465,5.048,5.0489,5.0482,5.0541,5.0525,5.0532,5.0552,5.061,5.0613,5.0616,5.0633,5.0639,5.0644,0,0,0,0,0,0,5.0371,5.0394,5.0392,5.0429,5.0447,5.0466,5.0485,5.0482,5.0502,5.05,5.0503,5.0507,5.0542,5.055,5.0531,5.0592,5.0574,5.0578,5.0585,5.0591,5.0595,5.0592,5.0516,0,0,0,0,0,5.0378,5.0402,5.042,5.0452,5.0461,5.0472,5.0485,5.0487,5.0505,5.0511,5.0523,5.0539,5.0562,5.0577,5.0598,5.0637,5.0642,5.0655,5.0659,5.0663,5.0667,5.069,5.0697,5.0627,5.0627,5.0627,0,0,5.0391,5.0407,5.0421,5.0454,5.0468,5.0493,5.0477,5.0503,5.0522,5.0515,5.0548,5.0557,5.0576,5.0613,5.063,5.0621,5.0687,5.0667,5.0669,5.0671,5.0694,5.0701,5.0707,5.0629,5.0629,5.0628,0,0,5.0429,5.0443,5.0472,5.0487,5.0509,5.0516,5.0523,5.0544,5.055,5.0584,5.058,5.0601,5.064,5.0654,5.0666,5.0714,5.0709,5.072,5.0744,5.0767,5.0772,5.0777,5.0796,5.0802,5.0724,5.0724,5.0724,0,5.0442,5.0481,5.0486,5.0514,5.0529,5.0526,5.0556,5.057,5.0597,5.0607,5.0598,5.0648,5.066,5.0702,5.0714,5.0723,5.0732,5.0718,5.0771,5.0776,5.0781,5.0799,5.0805,5.0725,5.0725,5.0725,5.0725,0,5.0497,5.0524,5.0545,5.0574,5.0591,5.062,5.063,5.0647,5.0648,5.0657,5.0692,5.0707,5.0733,5.0743,5.0743,5.0785,5.078,5.0771,5.0753,5.0789,5.0806,5.0812,5.0727,5.0727,5.0727,5.0726,0,0,5.054,5.0575,5.0582,5.0597,5.0622,5.0643,5.0672,5.0699,5.0714,5.0734,5.0759,5.0793,5.0786,5.08,5.0802,5.0822,5.0861,5.0811,5.0812,5.0821,5.0911,5.0919,5.0926,5.0858,5.086,5.0861,5.091,0,5.0581,5.0634,5.0642,5.0688,5.0714,5.0713,5.0739,5.0757,5.0767,5.079,5.08,5.0825,5.0813,5.0822,5.0842,5.0852,5.088,5.0849,5.0882,5.0883,5.0879,5.0935,5.0942,5.0988,5.0917,5.0918,5.0919,0,5.0635,5.066,5.071,5.0735,5.0746,5.0769,5.0796,5.0818,5.084,5.0845,5.0863,5.0864,5.0894,5.0875,5.0918,5.0897,5.0912,5.0919,5.0921,5.0925,5.0904,5.0941,5.1003,5.101,5.0929,5.0928,5.0927,0,5.0664,5.0709,5.0746,5.0758,5.0787,5.0804,5.0817,5.0838,5.0855,5.0878,5.0889,5.0915,5.0929,5.0949,5.0957,5.0942,5.1,5.0981,5.1006,5.1006,5.1018,5.1018,5.1084,5.1026,5.1026,5.1026,5.1025,0,5.071,5.0741,5.0759,5.0782,5.0817,5.0826,5.086,5.0872,5.0892,5.0917,5.0916,5.094,5.0948,5.0973,5.0979,5.1015,5.102,5.1026,5.1028,5.1027,5.1026,5.1037,5.1034,5.1027,5.1027,5.1027,5.1026,0,5.0747,5.0761,5.0801,5.0827,5.0835,5.086,5.0882,5.0904,5.0914,5.0946,5.0954,5.097,5.0999,5.1009,5.1044,5.1048,5.1091,5.1089,5.1084,5.1085,5.111,5.1108,5.1186,5.1197,5.113,5.1131,5.1131,0,5.0776,5.0801,5.0831,5.0849,5.0863,5.0891,5.0909,5.0919,5.0938,5.0967,5.0985,5.1015,5.104,5.1087,5.1101,5.1129,5.1128,5.1154,5.1132,5.1131,5.113,5.1129,5.1132,5.1158,5.1158,5.1159,5.1159,0,5.0826,5.0833,5.086,5.089,5.0913,5.0936,5.0959,5.0974,5.0987,5.1008,5.104,5.1059,5.1097,5.1127,5.1156,5.1168,5.1166,5.1166,5.1174,5.1174,5.1171,5.1174,5.1097,5.1164,5.1164,5.1163,5.1163,5.1163,5.0861,5.0884,5.091,5.0941,5.096,5.0983,5.1006,5.102,5.1047,5.108,5.1084,5.1118,5.1142,5.118,5.1195,5.1222,5.1214,5.1225,5.1227,5.123,5.1233,5.1166,5.1227,5.1226,5.1226,5.1226,5.1226,0,5.0913,5.0931,5.0959,5.0993,5.1018,5.1016,5.1042,5.1063,5.1094,5.1116,5.1142,5.1179,5.1209,5.1227,5.1257,5.1275,5.1275,5.1283,5.1282,5.1285,5.1237,5.1228,5.1283,5.1283,5.1283,5.1282,5.1282,5.1282,5.0943,5.0983,5.0993,5.1042,5.1059,5.1095,5.111,5.1131,5.115,5.1192,5.1218,5.123,5.1251,5.1284,5.1311,5.1316,5.1327,5.1336,5.134,5.1294,5.1288,5.1283,5.1275,5.1338,5.1338,5.1386,5.1387,5.1387]}]]